星链-11527 (STARLINK-11527)

导读

STARLINK-11527是美国太空探索技术公司SpaceX星链星座的一员,星链旨在构建全球卫星互联网星座,为全球提供低延迟宽带互联网服务。该卫星于2025年1月8日发射入轨,属于星链第二代组网任务补充卫星,将加入低轨星座运行,助力完善星座全球覆盖与服务能力,进一步拓展星链的通信覆盖范围和服务性能。

基本信息
目录编号:
62523
目录名称:
STARLINK-11527
国际标识:
2025-004N
轨道中心:
EARTH
卫星名称:
星链-11527
卫星全名:
星链-11527 (STARLINK-11527)
卫星状态:
在轨 (已飞行612 天)
发射日期:
2025-01-08 UTC
国别 :
美国 (US)
星等 :
--
该卫星已列入 空间交会检测服务 Space Conjunction Data Service (SCDS) ,当前飞行风险评估等级: 无高风险
轨道信息
数据来源 国际轨道数据
星历时间: 2026-09-12T01:58:09+0800
10小时前
查看轨道信息
半长轴: 6734.492km
偏心率: 0.0001654
轨道倾角: 43.001°
近地点辐角 297.209°
升交点赤经 28.968°
平近点角 62.861°
近地点: 355.241km
远地点: 357.469km
周期: 91.668分钟
每日圈数: 15.708891
详细信息
固有亮度:
5
最大亮度:
2.5
卫星平台:
Starlink V1.0
覆盖范围:
全球
运营商:
太空探索技术公司
运营商所在国:
美国
制造商(研发单位):
太空探索技术公司
制造商所在国:
美国
使用方式:
暂无
卫星简介
Starlink 计划是 SpaceX 推出的全球卫星互联网项目,通过发射低轨道卫星,为全球尤其是偏远地区提供高速、低延迟的互联网服务。自 2019 年起,Starlink 已部署数千颗卫星,旨在缩小全球数字鸿沟,推动互联网普及。该项目还为军事、航空等行业提供通信支持,带来广泛经济效益。
2D轨道图
3D轨道图
轨道高度分析图
轨道倾角分析图
轨道综合分析图
查看轨道综合分析图
交会数据列表
事件ID 空间交会对象 最接近时刻(TCA) 交会距离 交会风险概率(CRP) 交会风险指数(CRI) 操作
CDM_260913-070806-164206-252321
2026-09-13T
07:08:47+0000
1.403 km
极远距离
5.8379E-6 低风险 0.5
与全量物体交会距离演化趋势
与全量物体交会风险概率演化趋势